Location: Anciles
(42.5833°N, 0.5167°E)
Time: 03:26:24
(UTC+00:00)

Cosmos 1900 - Pass Details

Date: 10 December 2019
Orbit: 692 x 730 km, 66.1° (Epoch: 22 January)

Event Time Altitude Azimuth Distance (km) Brightness Sun altitude
Rises 17:23:14 0° 330° (NNW) 3,078 7.7 -10.5°
Reaches altitude 10° 17:25:36 10° 333° (NNW) 2,155 6.9 -10.9°
Maximum altitude 17:30:28 69° 56° (ENE) 744 4.2 -11.8°
Drops below altitude 10° 17:35:19 10° 140° (SE) 2,141 6.6 -12.6°
Sets 17:37:39 0° 143° (SE) 3,056 7.4 -13.0°
